Wetterdaten: Freitag, 26.09.2014
Datum Zeit Temp. A. Mod.Schuppen Waschkche Feuchte A. Luftdruck Regen Wind Richtung Richtung Sonnenschein Helligkeit Solar
26.09.2014 00:04 14,2 C 13,7 C 16,1 C 73 % 1021,0 hPa 0,0 l/m 20,6 km/h (4 Bft) W-SW45 240 0 min 0 lux 0 W/m
26.09.2014 00:09 14,2 C 13,6 C 16,1 C 73 % 1021,0 hPa 0,0 l/m 15,5 km/h (3 Bft) SW67.5 230 0 min 0 lux 0 W/m
26.09.2014 00:14 14,2 C 13,6 C 16,1 C 74 % 1021,0 hPa 0,0 l/m 13,9 km/h (3 Bft) SW22.5 225 0 min 0 lux 0 W/m
26.09.2014 00:19 14,1 C 13,5 C 16,1 C 73 % 1021,0 hPa 0,0 l/m 15,2 km/h (3 Bft) W-SW22.5 240 0 min 0 lux 0 W/m
26.09.2014 00:24 14,0 C 13,5 C 16,1 C 74 % 1021,0 hPa 0,0 l/m 18,3 km/h (3 Bft) SW22.5 235 0 min 0 lux 0 W/m
26.09.2014 00:29 14,0 C 13,5 C 16,1 C 74 % 1021,0 hPa 0,0 l/m 18,3 km/h (3 Bft) SW22.5 235 0 min 0 lux 0 W/m
26.09.2014 00:34 14,1 C 13,5 C 16,1 C 73 % 1021,0 hPa 0,0 l/m 18,8 km/h (3 Bft) SW22.5 225 0 min 0 lux 0 W/m
26.09.2014 00:39 14,1 C 13,6 C 16,1 C 73 % 1021,0 hPa 0,0 l/m 18,5 km/h (3 Bft) SW45 215 0 min 0 lux 0 W/m
26.09.2014 00:44 14,2 C 13,5 C 16,1 C 72 % 1021,0 hPa 0,0 l/m 21,1 km/h (4 Bft) SW45 235 0 min 0 lux 0 W/m
26.09.2014 00:49 14,1 C 13,5 C 16,1 C 73 % 1021,0 hPa 0,0 l/m 17,1 km/h (3 Bft) SW45 225 0 min 0 lux 0 W/m
26.09.2014 00:54 14,1 C 13,3 C 16,1 C 73 % 1021,0 hPa 0,0 l/m 13,5 km/h (3 Bft) SW22.5 225 0 min 0 lux 0 W/m
26.09.2014 00:59 14,0 C 13,1 C 16,1 C 74 % 1021,0 hPa 0,0 l/m 18,5 km/h (3 Bft) SW22.5 230 0 min 0 lux 0 W/m
26.09.2014 01:04 13,8 C 13,1 C 16,1 C 74 % 1021,0 hPa 0,0 l/m 18,1 km/h (3 Bft) SW67.5 235 0 min 0 lux 0 W/m
26.09.2014 01:09 13,8 C 12,7 C 16,1 C 74 % 1021,0 hPa 0,0 l/m 21,0 km/h (4 Bft) SW22.5 230 0 min 0 lux 0 W/m
26.09.2014 01:14 13,6 C 12,5 C 16,1 C 75 % 1021,0 hPa 0,0 l/m 20,8 km/h (4 Bft) SW22.5 235 0 min 0 lux 0 W/m
26.09.2014 01:20 20,4 C 22,4 C 16,1 C 75 % 1009,8 hPa 0,0 l/m 15,6 km/h (3 Bft) SW45 235 0 min 0 lux 0 W/m
26.09.2014 01:24 13,5 C 12,0 C 16,1 C 75 % 1021,0 hPa 0,0 l/m 17,9 km/h (3 Bft) SW22.5 230 0 min 0 lux 0 W/m
26.09.2014 01:29 13,4 C 11,8 C 16,1 C 76 % 1021,0 hPa 0,0 l/m 16,6 km/h (3 Bft) SW45 225 0 min 0 lux 0 W/m
26.09.2014 01:34 13,3 C 11,7 C 16,0 C 76 % 1021,0 hPa 0,0 l/m 12,9 km/h (3 Bft) SW22.5 220 0 min 0 lux 0 W/m
26.09.2014 01:39 13,2 C 11,5 C 16,1 C 76 % 1021,0 hPa 0,0 l/m 15,0 km/h (3 Bft) SW45 225 0 min 0 lux 0 W/m
26.09.2014 01:44 13,2 C 11,6 C 16,1 C 76 % 1021,0 hPa 0,0 l/m 17,1 km/h (3 Bft) SW22.5 225 0 min 0 lux 0 W/m
26.09.2014 01:49 13,2 C 11,8 C 16,1 C 77 % 1021,0 hPa 0,0 l/m 15,7 km/h (3 Bft) SW45 225 0 min 0 lux 0 W/m
26.09.2014 01:54 13,2 C 11,9 C 16,0 C 76 % 1021,0 hPa 0,0 l/m 16,3 km/h (3 Bft) SW45 225 0 min 0 lux 0 W/m
26.09.2014 01:59 13,2 C 12,1 C 16,0 C 76 % 1021,0 hPa 0,0 l/m 15,1 km/h (3 Bft) SW22.5 225 0 min 0 lux 0 W/m
26.09.2014 02:04 13,3 C 12,5 C 16,0 C 76 % 1021,0 hPa 0,0 l/m 15,0 km/h (3 Bft) SW45 215 0 min 0 lux 0 W/m
26.09.2014 02:09 13,4 C 12,6 C 16,0 C 76 % 1021,0 hPa 0,0 l/m 16,8 km/h (3 Bft) SW45 225 0 min 0 lux 0 W/m
26.09.2014 02:15 13,4 C 12,7 C 16,0 C 76 % 1021,0 hPa 0,0 l/m 18,6 km/h (3 Bft) SW45 220 0 min 0 lux 0 W/m
26.09.2014 02:19 13,4 C 12,9 C 16,0 C 76 % 1021,0 hPa 0,0 l/m 15,1 km/h (3 Bft) SW22.5 230 0 min 0 lux 0 W/m
26.09.2014 02:24 13,4 C 13,0 C 16,0 C 76 % 1021,0 hPa 0,0 l/m 15,1 km/h (3 Bft) SW22.5 230 0 min 0 lux 0 W/m
26.09.2014 02:29 13,4 C 13,0 C 16,0 C 76 % 1021,0 hPa 0,0 l/m 16,5 km/h (3 Bft) SW45 220 0 min 0 lux 0 W/m
26.09.2014 02:34 13,4 C 13,0 C 16,0 C 76 % 1021,0 hPa 0,0 l/m 17,5 km/h (3 Bft) SW45 235 0 min 0 lux 0 W/m
26.09.2014 02:39 13,4 C 13,1 C 16,0 C 76 % 1021,0 hPa 0,0 l/m 17,5 km/h (3 Bft) SW45 235 0 min 0 lux 0 W/m
26.09.2014 02:44 13,5 C 13,1 C 16,0 C 76 % 1021,0 hPa 0,0 l/m 15,3 km/h (3 Bft) SW45 220 0 min 0 lux 0 W/m
26.09.2014 02:49 13,5 C 13,1 C 16,0 C 76 % 1021,0 hPa 0,0 l/m 17,8 km/h (3 Bft) SW22.5 220 0 min 0 lux 0 W/m
26.09.2014 02:54 13,4 C 13,1 C 16,0 C 77 % 1021,0 hPa 0,0 l/m 14,5 km/h (3 Bft) SW45 220 0 min 0 lux 0 W/m
26.09.2014 02:59 13,5 C 13,1 C 16,0 C 77 % 1021,0 hPa 0,0 l/m 14,3 km/h (3 Bft) SW45 230 0 min 0 lux 0 W/m
26.09.2014 03:04 13,5 C 13,1 C 16,0 C 77 % 1021,0 hPa 0,0 l/m 14,3 km/h (3 Bft) SW45 230 0 min 0 lux 0 W/m
26.09.2014 03:09 13,4 C 13,1 C 16,0 C 77 % 1021,0 hPa 0,0 l/m 17,3 km/h (3 Bft) SW22.5 225 0 min 0 lux 0 W/m
26.09.2014 03:14 13,5 C 13,1 C 16,0 C 77 % 1021,0 hPa 0,0 l/m 15,8 km/h (3 Bft) SW22.5 225 0 min 0 lux 0 W/m
26.09.2014 03:20 13,5 C 13,2 C 16,0 C 77 % 1021,0 hPa 0,0 l/m 16,3 km/h (3 Bft) SW22.5 230 0 min 0 lux 0 W/m
26.09.2014 03:24 13,6 C 13,2 C 16,0 C 78 % 1021,0 hPa 0,0 l/m 18,1 km/h (3 Bft) SW45 230 0 min 0 lux 0 W/m
26.09.2014 03:29 13,5 C 13,3 C 16,0 C 78 % 1021,0 hPa 0,0 l/m 11,8 km/h (2 Bft) SW45 225 0 min 0 lux 0 W/m
26.09.2014 03:34 13,6 C 13,3 C 16,0 C 78 % 1021,0 hPa 0,0 l/m 17,0 km/h (3 Bft) SW22.5 235 0 min 0 lux 0 W/m
26.09.2014 03:39 13,6 C 13,4 C 16,0 C 78 % 1021,0 hPa 0,0 l/m 17,9 km/h (3 Bft) SW45 225 0 min 0 lux 0 W/m
26.09.2014 03:44 13,6 C 13,4 C 16,0 C 78 % 1021,0 hPa 0,0 l/m 18,4 km/h (3 Bft) SW22.5 230 0 min 0 lux 0 W/m
26.09.2014 03:49 13,6 C 13,4 C 16,0 C 78 % 1021,0 hPa 0,0 l/m 19,7 km/h (3 Bft) SW22.5 235 0 min 0 lux 0 W/m
26.09.2014 03:54 13,7 C 13,4 C 16,0 C 78 % 1021,0 hPa 0,0 l/m 15,1 km/h (3 Bft) SW22.5 230 0 min 0 lux 0 W/m
26.09.2014 03:59 13,6 C 13,4 C 16,0 C 78 % 1021,0 hPa 0,0 l/m 12,7 km/h (3 Bft) SW45 225 0 min 0 lux 0 W/m
26.09.2014 04:04 13,6 C 13,4 C 16,0 C 79 % 1021,0 hPa 0,0 l/m 14,6 km/h (3 Bft) W-SW22.5 240 0 min 0 lux 0 W/m
26.09.2014 04:09 13,6 C 13,4 C 16,0 C 79 % 1021,0 hPa 0,0 l/m 13,8 km/h (3 Bft) SW45 225 0 min 0 lux 0 W/m
26.09.2014 04:14 13,7 C 13,4 C 16,0 C 79 % 1021,0 hPa 0,0 l/m 13,0 km/h (3 Bft) SW45 230 0 min 0 lux 0 W/m
26.09.2014 04:19 13,6 C 13,4 C 16,0 C 80 % 1021,0 hPa 0,0 l/m 12,6 km/h (3 Bft) SW22.5 230 0 min 0 lux 0 W/m
26.09.2014 04:24 13,6 C 13,4 C 16,0 C 79 % 1021,0 hPa 0,0 l/m 18,7 km/h (3 Bft) SW22.5 230 0 min 0 lux 0 W/m
26.09.2014 04:29 13,6 C 13,4 C 16,0 C 80 % 1021,0 hPa 0,0 l/m 17,4 km/h (3 Bft) SW22.5 235 0 min 0 lux 0 W/m
26.09.2014 04:34 13,6 C 13,4 C 16,0 C 80 % 1021,0 hPa 0,0 l/m 13,0 km/h (3 Bft) SW22.5 235 0 min 0 lux 0 W/m
26.09.2014 04:39 13,7 C 13,4 C 16,0 C 80 % 1021,0 hPa 0,0 l/m 14,1 km/h (3 Bft) SW22.5 225 0 min 0 lux 0 W/m
26.09.2014 04:44 13,7 C 13,4 C 16,0 C 80 % 1021,0 hPa 0,0 l/m 14,1 km/h (3 Bft) SW45 215 0 min 0 lux 0 W/m
26.09.2014 04:49 13,7 C 13,4 C 16,0 C 80 % 1021,0 hPa 0,0 l/m 12,0 km/h (2 Bft) SW45 230 0 min 0 lux 0 W/m
26.09.2014 04:54 13,7 C 13,4 C 16,0 C 80 % 1021,0 hPa 0,0 l/m 13,5 km/h (3 Bft) SW45 215 0 min 0 lux 0 W/m
26.09.2014 04:59 13,7 C 13,3 C 16,0 C 80 % 1021,0 hPa 0,0 l/m 14,3 km/h (3 Bft) SW22.5 225 0 min 0 lux 0 W/m
26.09.2014 05:04 13,6 C 13,3 C 16,0 C 80 % 1021,0 hPa 0,0 l/m 14,0 km/h (3 Bft) SW45 215 0 min 0 lux 0 W/m
26.09.2014 05:09 13,6 C 13,3 C 16,0 C 80 % 1021,0 hPa 0,0 l/m 15,4 km/h (3 Bft) SW45 215 0 min 0 lux 0 W/m
26.09.2014 05:14 13,7 C 13,3 C 16,0 C 80 % 1021,0 hPa 0,0 l/m 16,1 km/h (3 Bft) SW45 225 0 min 0 lux 0 W/m
26.09.2014 05:19 13,6 C 13,3 C 16,0 C 81 % 1021,0 hPa 0,0 l/m 16,1 km/h (3 Bft) SW22.5 220 0 min 0 lux 0 W/m
26.09.2014 05:24 13,6 C 13,3 C 16,0 C 80 % 1021,0 hPa 0,0 l/m 16,2 km/h (3 Bft) SW45 220 0 min 0 lux 0 W/m
26.09.2014 05:29 13,6 C 13,3 C 16,0 C 81 % 1021,0 hPa 0,0 l/m 17,0 km/h (3 Bft) SW45 220 0 min 0 lux 0 W/m
26.09.2014 05:34 13,6 C 13,3 C 16,0 C 81 % 1021,0 hPa 0,0 l/m 14,0 km/h (3 Bft) SW22.5 220 0 min 0 lux 0 W/m
26.09.2014 05:39 13,6 C 13,3 C 16,0 C 81 % 1021,0 hPa 0,0 l/m 19,9 km/h (4 Bft) SW45 220 0 min 0 lux 0 W/m
26.09.2014 05:44 13,6 C 13,3 C 16,0 C 81 % 1021,0 hPa 0,0 l/m 21,1 km/h (4 Bft) SW45 220 0 min 0 lux 0 W/m
26.09.2014 05:49 13,6 C 13,3 C 16,0 C 81 % 1021,0 hPa 0,0 l/m 21,1 km/h (4 Bft) SW45 220 0 min 0 lux 0 W/m
26.09.2014 05:54 13,5 C 13,3 C 16,0 C 81 % 1021,0 hPa 0,0 l/m 22,8 km/h (4 Bft) SW22.5 225 0 min 0 lux 0 W/m
26.09.2014 05:59 13,5 C 13,2 C 16,0 C 81 % 1021,0 hPa 0,0 l/m 15,9 km/h (3 Bft) SW45 220 0 min 0 lux 0 W/m
26.09.2014 06:04 13,5 C 13,3 C 16,0 C 81 % 1021,0 hPa 0,0 l/m 17,4 km/h (3 Bft) SW67.5 225 0 min 0 lux 0 W/m
26.09.2014 06:09 13,5 C 13,2 C 16,0 C 81 % 1021,0 hPa 0,0 l/m 18,8 km/h (3 Bft) SW22.5 230 0 min 0 lux 0 W/m
26.09.2014 06:14 13,5 C 13,2 C 16,0 C 81 % 1021,0 hPa 0,0 l/m 16,1 km/h (3 Bft) SW45 225 0 min 0 lux 0 W/m
26.09.2014 06:19 13,5 C 13,2 C 16,0 C 81 % 1021,0 hPa 0,0 l/m 16,6 km/h (3 Bft) SW22.5 220 0 min 0 lux 0 W/m
26.09.2014 06:24 13,5 C 13,2 C 16,0 C 81 % 1021,0 hPa 0,0 l/m 21,9 km/h (4 Bft) SW67.5 215 0 min 0 lux 0 W/m
26.09.2014 06:29 13,5 C 13,2 C 16,0 C 81 % 1021,0 hPa 0,0 l/m 21,9 km/h (4 Bft) SW67.5 215 0 min 0 lux 0 W/m
26.09.2014 06:34 13,5 C 13,2 C 16,0 C 81 % 1021,0 hPa 0,0 l/m 15,7 km/h (3 Bft) SW22.5 225 0 min 0 lux 0 W/m
26.09.2014 06:40 13,5 C 13,3 C 16,0 C 81 % 1021,0 hPa 0,0 l/m 17,1 km/h (3 Bft) SW45 220 0 min 0 lux 0 W/m
26.09.2014 06:44 13,6 C 13,3 C 16,0 C 82 % 1021,0 hPa 0,0 l/m 15,2 km/h (3 Bft) SW22.5 225 0 min 0 lux 0 W/m
26.09.2014 06:49 13,6 C 13,3 C 16,0 C 82 % 1021,0 hPa 0,0 l/m 18,8 km/h (3 Bft) SW22.5 225 0 min 0 lux 0 W/m
26.09.2014 06:54 13,5 C 13,3 C 16,0 C 81 % 1021,0 hPa 0,0 l/m 19,6 km/h (3 Bft) SW22.5 220 0 min 0 lux 0 W/m
26.09.2014 06:59 13,6 C 13,3 C 16,0 C 82 % 1021,0 hPa 0,0 l/m 18,6 km/h (3 Bft) SW45 220 0 min 0 lux 0 W/m
26.09.2014 07:04 13,6 C 13,3 C 16,0 C 82 % 1021,0 hPa 0,0 l/m 16,6 km/h (3 Bft) SW45 215 0 min 0 lux 0 W/m
26.09.2014 07:09 13,5 C 13,3 C 16,0 C 82 % 1021,0 hPa 0,0 l/m 16,1 km/h (3 Bft) SW22.5 230 0 min 0 lux 0 W/m
26.09.2014 07:14 13,5 C 13,3 C 16,0 C 82 % 1021,0 hPa 0,0 l/m 14,6 km/h (3 Bft) SW45 225 0 min 32 lux 0 W/m
26.09.2014 07:19 13,5 C 13,3 C 16,0 C 82 % 1021,0 hPa 0,0 l/m 18,3 km/h (3 Bft) SW45 230 0 min 60 lux 0 W/m
26.09.2014 07:24 13,5 C 13,3 C 16,0 C 82 % 1021,0 hPa 0,0 l/m 14,8 km/h (3 Bft) SW45 225 0 min 78 lux 0 W/m
26.09.2014 07:29 13,6 C 13,3 C 16,0 C 82 % 1021,0 hPa 0,0 l/m 17,3 km/h (3 Bft) SW45 215 0 min 120 lux 0 W/m
26.09.2014 07:34 13,6 C 13,3 C 16,0 C 82 % 1021,0 hPa 0,0 l/m 16,2 km/h (3 Bft) S-SW67.5 210 0 min 163 lux 1 W/m
26.09.2014 07:39 13,6 C 13,4 C 16,0 C 82 % 1022,0 hPa 0,0 l/m 20,2 km/h (4 Bft) S-SW45 210 0 min 237 lux 2 W/m
26.09.2014 07:45 13,6 C 13,4 C 15,9 C 82 % 1022,0 hPa 0,0 l/m 17,1 km/h (3 Bft) SW45 225 0 min 293 lux 2 W/m
26.09.2014 07:49 13,6 C 13,4 C 15,9 C 82 % 1022,0 hPa 0,0 l/m 17,9 km/h (3 Bft) SW45 225 0 min 378 lux 3 W/m
26.09.2014 07:54 13,6 C 13,4 C 15,9 C 82 % 1022,0 hPa 0,0 l/m 19,0 km/h (3 Bft) SW22.5 230 0 min 618 lux 4 W/m
26.09.2014 07:59 13,6 C 13,5 C 15,8 C 82 % 1022,0 hPa 0,0 l/m 19,4 km/h (3 Bft) SW45 225 0 min 757 lux 5 W/m
26.09.2014 08:04 13,6 C 13,5 C 15,8 C 82 % 1022,0 hPa 0,0 l/m 19,5 km/h (3 Bft) SW45 225 0 min 929 lux 6 W/m
26.09.2014 08:09 13,5 C 13,6 C 15,7 C 82 % 1022,0 hPa 0,0 l/m 18,5 km/h (3 Bft) S-SW22.5 210 0 min 1,21 klux 8 W/m
26.09.2014 08:14 13,6 C 13,6 C 15,7 C 82 % 1022,0 hPa 0,0 l/m 25,0 km/h (4 Bft) SW45 220 0 min 1,20 klux 8 W/m
26.09.2014 08:19 13,6 C 13,7 C 15,6 C 82 % 1022,0 hPa 0,0 l/m 19,0 km/h (3 Bft) SW45 215 0 min 1,52 klux 10 W/m
26.09.2014 08:24 13,6 C 13,8 C 15,6 C 82 % 1022,0 hPa 0,0 l/m 19,6 km/h (3 Bft) S-SW45 210 0 min 1,76 klux 12 W/m
26.09.2014 08:29 13,6 C 13,9 C 15,6 C 82 % 1022,0 hPa 0,0 l/m 16,9 km/h (3 Bft) SW67.5 230 0 min 2,22 klux 15 W/m
26.09.2014 08:34 13,7 C 14,3 C 15,6 C 82 % 1022,0 hPa 0,0 l/m 20,9 km/h (4 Bft) SW22.5 225 0 min 3,69 klux 25 W/m
26.09.2014 08:39 13,7 C 14,4 C 15,6 C 81 % 1022,0 hPa 0,0 l/m 23,5 km/h (4 Bft) SW67.5 220 0 min 4,02 klux 27 W/m
26.09.2014 08:44 13,7 C 14,4 C 15,6 C 81 % 1022,0 hPa 0,0 l/m 22,1 km/h (4 Bft) SW45 220 0 min 4,26 klux 29 W/m
26.09.2014 08:49 13,9 C 14,6 C 15,6 C 82 % 1022,0 hPa 0,0 l/m 20,5 km/h (4 Bft) SW67.5 235 0 min 4,53 klux 31 W/m
26.09.2014 08:54 13,7 C 14,3 C 15,6 C 82 % 1022,0 hPa 0,0 l/m 20,9 km/h (4 Bft) SW22.5 225 0 min 3,69 klux 25 W/m
26.09.2014 08:59 13,7 C 14,4 C 15,6 C 81 % 1022,0 hPa 0,0 l/m 23,5 km/h (4 Bft) SW67.5 220 0 min 4,02 klux 27 W/m
26.09.2014 09:04 13,7 C 14,4 C 15,6 C 81 % 1022,0 hPa 0,0 l/m 22,1 km/h (4 Bft) SW45 220 0 min 4,26 klux 29 W/m
26.09.2014 09:09 13,9 C 14,6 C 15,6 C 82 % 1022,0 hPa 0,0 l/m 20,5 km/h (4 Bft) SW67.5 235 0 min 4,53 klux 31 W/m
26.09.2014 09:14 14,1 C 15,3 C 15,6 C 81 % 1023,0 hPa 0,0 l/m 21,6 km/h (4 Bft) SW45 230 0 min 6,17 klux 42 W/m
26.09.2014 09:19 14,1 C 15,3 C 15,6 C 81 % 1023,0 hPa 0,0 l/m 14,9 km/h (3 Bft) SW45 235 0 min 7,18 klux 49 W/m
26.09.2014 09:24 14,2 C 15,5 C 15,7 C 81 % 1023,0 hPa 0,0 l/m 28,0 km/h (5 Bft) SW67.5 230 0 min 6,85 klux 47 W/m
26.09.2014 09:29 14,3 C 15,7 C 15,7 C 81 % 1023,0 hPa 0,0 l/m 20,3 km/h (4 Bft) SW45 230 0 min 7,52 klux 51 W/m
26.09.2014 09:35 14,1 C 15,3 C 15,6 C 81 % 1023,0 hPa 0,0 l/m 21,6 km/h (4 Bft) SW45 230 0 min 6,17 klux 42 W/m
26.09.2014 09:40 14,1 C 15,3 C 15,6 C 81 % 1023,0 hPa 0,0 l/m 14,9 km/h (3 Bft) SW45 235 0 min 7,18 klux 49 W/m
26.09.2014 09:44 14,2 C 15,5 C 15,7 C 81 % 1023,0 hPa 0,0 l/m 28,0 km/h (5 Bft) SW67.5 230 0 min 6,85 klux 47 W/m
26.09.2014 09:49 14,3 C 15,7 C 15,7 C 81 % 1023,0 hPa 0,0 l/m 20,3 km/h (4 Bft) SW45 230 0 min 7,52 klux 51 W/m
26.09.2014 09:54 14,4 C 15,9 C 15,7 C 81 % 1023,0 hPa 0,0 l/m 24,6 km/h (4 Bft) SW22.5 230 0 min 7,19 klux 49 W/m
26.09.2014 09:59 14,4 C 16,1 C 15,7 C 81 % 1023,0 hPa 0,0 l/m 21,5 km/h (4 Bft) SW22.5 230 0 min 10,0 klux 68 W/m
26.09.2014 10:04 14,4 C 16,7 C 15,7 C 80 % 1023,0 hPa 0,0 l/m 15,2 km/h (3 Bft) SW45 230 0 min 9,9 klux 68 W/m
26.09.2014 10:09 14,4 C 16,7 C 15,7 C 80 % 1023,0 hPa 0,0 l/m 19,9 km/h (4 Bft) SW45 225 0 min 9,9 klux 68 W/m
26.09.2014 10:14 14,4 C 15,9 C 15,7 C 81 % 1023,0 hPa 0,0 l/m 24,6 km/h (4 Bft) SW22.5 230 0 min 7,19 klux 49 W/m
26.09.2014 10:19 14,4 C 16,1 C 15,7 C 81 % 1023,0 hPa 0,0 l/m 21,5 km/h (4 Bft) SW22.5 230 0 min 10,0 klux 68 W/m
26.09.2014 10:24 14,4 C 16,7 C 15,7 C 80 % 1023,0 hPa 0,0 l/m 15,2 km/h (3 Bft) SW45 230 0 min 9,9 klux 68 W/m
26.09.2014 10:29 14,4 C 16,7 C 15,7 C 80 % 1023,0 hPa 0,0 l/m 19,9 km/h (4 Bft) SW45 225 0 min 9,9 klux 68 W/m
26.09.2014 10:34 14,8 C 17,7 C 15,8 C 79 % 1023,0 hPa 0,0 l/m 18,8 km/h (3 Bft) SW22.5 225 0 min 10,7 klux 73 W/m
26.09.2014 10:39 14,8 C 17,3 C 15,8 C 79 % 1023,0 hPa 0,0 l/m 23,4 km/h (4 Bft) SW45 220 0 min 10,5 klux 72 W/m
26.09.2014 10:44 15,0 C 17,3 C 15,8 C 80 % 1023,0 hPa 0,0 l/m 19,7 km/h (3 Bft) SW45 225 0 min 10,6 klux 73 W/m
26.09.2014 10:49 15,0 C 17,5 C 15,8 C 80 % 1023,0 hPa 0,0 l/m 22,3 km/h (4 Bft) W-SW45 240 0 min 10,9 klux 75 W/m
26.09.2014 10:54 14,8 C 17,7 C 15,8 C 79 % 1023,0 hPa 0,0 l/m 18,8 km/h (3 Bft) SW22.5 225 0 min 10,7 klux 73 W/m
26.09.2014 10:59 14,8 C 17,3 C 15,8 C 79 % 1023,0 hPa 0,0 l/m 23,4 km/h (4 Bft) SW45 220 0 min 10,5 klux 72 W/m
26.09.2014 11:04 15,0 C 17,3 C 15,8 C 80 % 1023,0 hPa 0,0 l/m 19,7 km/h (3 Bft) SW45 225 0 min 10,6 klux 73 W/m
26.09.2014 11:09 15,0 C 17,5 C 15,8 C 80 % 1023,0 hPa 0,0 l/m 22,3 km/h (4 Bft) W-SW45 240 0 min 10,9 klux 75 W/m
26.09.2014 11:14 15,0 C 18,0 C 15,9 C 79 % 1023,0 hPa 0,0 l/m 19,8 km/h (3 Bft) SW22.5 225 0 min 12,2 klux 83 W/m
26.09.2014 11:19 15,0 C 18,1 C 15,9 C 79 % 1023,0 hPa 0,0 l/m 21,7 km/h (4 Bft) SW22.5 230 0 min 12,2 klux 83 W/m
26.09.2014 11:24 15,1 C 18,0 C 15,9 C 79 % 1023,0 hPa 0,0 l/m 19,6 km/h (3 Bft) SW45 225 0 min 11,4 klux 78 W/m
26.09.2014 11:29 15,1 C 18,0 C 15,9 C 79 % 1023,0 hPa 0,0 l/m 20,2 km/h (4 Bft) SW67.5 220 0 min 12,4 klux 85 W/m
26.09.2014 11:34 15,0 C 18,0 C 15,9 C 79 % 1023,0 hPa 0,0 l/m 19,8 km/h (3 Bft) SW22.5 225 0 min 12,2 klux 83 W/m
26.09.2014 11:39 15,0 C 18,1 C 15,9 C 79 % 1023,0 hPa 0,0 l/m 21,7 km/h (4 Bft) SW22.5 230 0 min 12,2 klux 83 W/m
26.09.2014 11:44 15,1 C 18,0 C 15,9 C 79 % 1023,0 hPa 0,0 l/m 19,6 km/h (3 Bft) SW45 225 0 min 11,4 klux 78 W/m
26.09.2014 11:49 15,1 C 18,0 C 15,9 C 79 % 1023,0 hPa 0,0 l/m 20,2 km/h (4 Bft) SW67.5 220 0 min 12,4 klux 85 W/m
26.09.2014 11:54 15,7 C 19,7 C 16,0 C 79 % 1022,9 hPa 0,0 l/m 18,5 km/h (3 Bft) W-SW22.5 240 0 min 18,7 klux 128 W/m
26.09.2014 11:59 15,7 C 19,1 C 16,0 C 78 % 1022,9 hPa 0,0 l/m 27,6 km/h (5 Bft) SW45 230 0 min 16,4 klux 112 W/m
26.09.2014 12:04 15,6 C 19,1 C 16,0 C 78 % 1023,0 hPa 0,0 l/m 22,1 km/h (4 Bft) SW45 230 0 min 20,2 klux 138 W/m
26.09.2014 12:09 15,8 C 19,3 C 16,0 C 79 % 1022,9 hPa 0,0 l/m 22,1 km/h (4 Bft) SW45 230 0 min 21,0 klux 144 W/m
26.09.2014 12:14 15,7 C 19,7 C 16,0 C 79 % 1022,9 hPa 0,0 l/m 18,5 km/h (3 Bft) W-SW22.5 240 0 min 18,7 klux 128 W/m
26.09.2014 12:19 15,7 C 19,1 C 16,0 C 78 % 1022,9 hPa 0,0 l/m 27,6 km/h (5 Bft) SW45 230 0 min 16,4 klux 112 W/m
26.09.2014 12:24 15,6 C 19,1 C 16,0 C 78 % 1023,0 hPa 0,0 l/m 22,1 km/h (4 Bft) SW45 230 0 min 20,2 klux 138 W/m
26.09.2014 12:29 15,8 C 19,3 C 16,0 C 79 % 1022,9 hPa 0,0 l/m 22,1 km/h (4 Bft) SW45 230 0 min 21,0 klux 144 W/m
26.09.2014 12:34 16,5 C 23,1 C 16,1 C 76 % 1022,9 hPa 0,0 l/m 23,3 km/h (4 Bft) SW67.5 225 0 min 42,6 klux 291 W/m
26.09.2014 12:39 16,9 C 24,5 C 16,2 C 76 % 1022,9 hPa 0,0 l/m 26,5 km/h (4 Bft) W-SW22.5 250 0 min 42,1 klux 288 W/m
26.09.2014 12:44 17,1 C 25,7 C 16,2 C 74 % 1022,9 hPa 0,0 l/m 28,0 km/h (5 Bft) SW45 230 5 min 49,9 klux 341 W/m
26.09.2014 12:49 17,2 C 26,0 C 16,2 C 75 % 1022,9 hPa 0,0 l/m 23,4 km/h (4 Bft) SW67.5 230 5 min 49,9 klux 341 W/m
26.09.2014 12:54 16,5 C 23,1 C 16,1 C 76 % 1022,9 hPa 0,0 l/m 23,3 km/h (4 Bft) SW67.5 225 0 min 42,6 klux 291 W/m
26.09.2014 12:59 16,9 C 24,5 C 16,2 C 76 % 1022,9 hPa 0,0 l/m 26,5 km/h (4 Bft) W-SW22.5 250 0 min 42,1 klux 288 W/m
26.09.2014 13:04 17,1 C 25,7 C 16,2 C 74 % 1022,9 hPa 0,0 l/m 28,0 km/h (5 Bft) SW45 230 5 min 49,9 klux 341 W/m
26.09.2014 13:09 17,2 C 26,0 C 16,2 C 75 % 1022,9 hPa 0,0 l/m 23,4 km/h (4 Bft) SW67.5 230 5 min 49,9 klux 341 W/m
26.09.2014 13:14 17,0 C 22,8 C 16,5 C 76 % 1022,9 hPa 0,0 l/m 29,6 km/h (5 Bft) W45 260 0 min 21,7 klux 148 W/m
26.09.2014 13:19 17,0 C 21,5 C 16,5 C 76 % 1022,9 hPa 0,0 l/m 28,9 km/h (5 Bft) W-SW22.5 240 0 min 17,9 klux 122 W/m
26.09.2014 13:24 17,0 C 20,4 C 16,6 C 76 % 1022,9 hPa 0,0 l/m 29,6 km/h (5 Bft) SW45 235 0 min 17,6 klux 120 W/m
26.09.2014 13:29 16,6 C 20,4 C 16,6 C 77 % 1022,9 hPa 0,0 l/m 27,8 km/h (5 Bft) W-SW22.5 240 0 min 11,4 klux 78 W/m
26.09.2014 13:34 17,0 C 22,8 C 16,5 C 76 % 1022,9 hPa 0,0 l/m 29,6 km/h (5 Bft) W45 260 0 min 21,7 klux 148 W/m
26.09.2014 13:39 17,0 C 21,5 C 16,5 C 76 % 1022,9 hPa 0,0 l/m 28,9 km/h (5 Bft) W-SW22.5 240 0 min 17,9 klux 122 W/m
26.09.2014 13:44 17,0 C 20,4 C 16,6 C 76 % 1022,9 hPa 0,0 l/m 29,6 km/h (5 Bft) SW45 235 0 min 17,6 klux 120 W/m
26.09.2014 13:49 16,6 C 20,4 C 16,6 C 77 % 1022,9 hPa 0,0 l/m 27,8 km/h (5 Bft) W-SW22.5 240 0 min 11,4 klux 78 W/m
26.09.2014 13:54 15,6 C 16,6 C 16,6 C 85 % 1023,0 hPa 0,0 l/m 22,1 km/h (4 Bft) W-SW45 240 0 min 10,5 klux 72 W/m
26.09.2014 13:59 15,6 C 16,5 C 16,6 C 85 % 1023,0 hPa 0,0 l/m 22,5 km/h (4 Bft) W-SW67.5 240 0 min 10,0 klux 68 W/m
26.09.2014 14:04 15,6 C 16,5 C 16,6 C 85 % 1023,0 hPa 0,0 l/m 22,3 km/h (4 Bft) SW22.5 235 0 min 9,6 klux 66 W/m
26.09.2014 14:09 15,6 C 16,8 C 16,6 C 85 % 1023,0 hPa 0,0 l/m 21,3 km/h (4 Bft) SW45 225 0 min 10,8 klux 74 W/m
26.09.2014 14:14 15,6 C 16,6 C 16,6 C 85 % 1023,0 hPa 0,0 l/m 22,1 km/h (4 Bft) W-SW45 240 0 min 10,5 klux 72 W/m
26.09.2014 14:19 15,6 C 16,5 C 16,6 C 85 % 1023,0 hPa 0,0 l/m 22,5 km/h (4 Bft) W-SW67.5 240 0 min 10,0 klux 68 W/m
26.09.2014 14:24 15,6 C 16,5 C 16,6 C 85 % 1023,0 hPa 0,0 l/m 22,3 km/h (4 Bft) SW22.5 235 0 min 9,6 klux 66 W/m
26.09.2014 14:29 15,6 C 16,8 C 16,6 C 85 % 1023,0 hPa 0,0 l/m 21,3 km/h (4 Bft) SW45 225 0 min 10,8 klux 74 W/m
26.09.2014 14:34 15,6 C 17,4 C 16,6 C 87 % 1023,0 hPa 0,0 l/m 20,2 km/h (4 Bft) W-SW22.5 250 0 min 12,3 klux 84 W/m
26.09.2014 14:39 15,6 C 17,3 C 16,7 C 88 % 1023,0 hPa 0,0 l/m 18,6 km/h (3 Bft) W-SW45 240 0 min 11,9 klux 81 W/m
26.09.2014 14:44 15,6 C 17,3 C 16,6 C 88 % 1023,0 hPa 0,0 l/m 17,8 km/h (3 Bft) SW45 230 0 min 13,0 klux 89 W/m
26.09.2014 14:49 15,7 C 17,7 C 16,7 C 88 % 1022,9 hPa 0,0 l/m 14,0 km/h (3 Bft) W-SW22.5 240 0 min 17,1 klux 117 W/m
26.09.2014 14:54 15,6 C 17,4 C 16,6 C 87 % 1023,0 hPa 0,0 l/m 20,2 km/h (4 Bft) W-SW22.5 250 0 min 12,3 klux 84 W/m
26.09.2014 14:59 15,6 C 17,3 C 16,7 C 88 % 1023,0 hPa 0,0 l/m 18,6 km/h (3 Bft) W-SW45 240 0 min 11,9 klux 81 W/m
26.09.2014 15:04 15,6 C 17,3 C 16,6 C 88 % 1023,0 hPa 0,0 l/m 17,8 km/h (3 Bft) SW45 230 0 min 13,0 klux 89 W/m
26.09.2014 15:09 15,7 C 17,7 C 16,7 C 88 % 1022,9 hPa 0,0 l/m 14,0 km/h (3 Bft) W-SW22.5 240 0 min 17,1 klux 117 W/m
26.09.2014 15:14 16,2 C 20,2 C 16,8 C 87 % 1022,9 hPa 0,0 l/m 15,3 km/h (3 Bft) SW22.5 225 0 min 16,7 klux 114 W/m
26.09.2014 15:19 16,2 C 19,6 C 16,8 C 86 % 1022,9 hPa 0,0 l/m 13,5 km/h (3 Bft) W-SW22.5 250 0 min 9,6 klux 66 W/m
26.09.2014 15:24 16,1 C 19,4 C 16,8 C 86 % 1022,9 hPa 0,0 l/m 12,2 km/h (2 Bft) W22.5 260 0 min 7,51 klux 51 W/m
26.09.2014 15:29 16,1 C 18,8 C 16,8 C 86 % 1022,9 hPa 0,0 l/m 10,9 km/h (2 Bft) W-SW22.5 250 0 min 6,13 klux 42 W/m
26.09.2014 15:34 16,2 C 20,2 C 16,8 C 87 % 1022,9 hPa 0,0 l/m 15,3 km/h (3 Bft) SW22.5 225 0 min 16,7 klux 114 W/m
26.09.2014 15:39 16,2 C 19,6 C 16,8 C 86 % 1022,9 hPa 0,0 l/m 13,5 km/h (3 Bft) W-SW22.5 250 0 min 9,6 klux 66 W/m
26.09.2014 15:45 16,1 C 19,4 C 16,8 C 86 % 1022,9 hPa 0,0 l/m 12,2 km/h (2 Bft) W22.5 260 0 min 7,51 klux 51 W/m
26.09.2014 15:50 16,1 C 18,8 C 16,8 C 86 % 1022,9 hPa 0,0 l/m 10,9 km/h (2 Bft) W-SW22.5 250 0 min 6,13 klux 42 W/m
26.09.2014 15:55 16,1 C 17,0 C 16,9 C 87 % 1022,9 hPa 0,0 l/m 13,6 km/h (3 Bft) W-SW22.5 245 0 min 6,86 klux 47 W/m
26.09.2014 15:59 16,0 C 17,0 C 16,9 C 88 % 1022,9 hPa 0,0 l/m 14,6 km/h (3 Bft) W-SW45 250 0 min 7,29 klux 50 W/m
26.09.2014 16:04 16,0 C 17,1 C 16,9 C 88 % 1022,9 hPa 0,0 l/m 15,2 km/h (3 Bft) W-SW22.5 245 0 min 10,0 klux 68 W/m
26.09.2014 16:09 16,0 C 17,4 C 16,9 C 88 % 1022,9 hPa 0,0 l/m 11,1 km/h (2 Bft) W-SW22.5 250 0 min 10,5 klux 72 W/m
26.09.2014 16:14 16,1 C 17,0 C 16,9 C 87 % 1022,9 hPa 0,0 l/m 13,6 km/h (3 Bft) W-SW22.5 245 0 min 6,86 klux 47 W/m
26.09.2014 16:19 16,0 C 17,0 C 16,9 C 88 % 1022,9 hPa 0,0 l/m 14,6 km/h (3 Bft) W-SW45 250 0 min 7,29 klux 50 W/m
26.09.2014 16:24 16,0 C 17,1 C 16,9 C 88 % 1022,9 hPa 0,0 l/m 15,2 km/h (3 Bft) W-SW22.5 245 0 min 10,0 klux 68 W/m
26.09.2014 16:29 16,0 C 17,4 C 16,9 C 88 % 1022,9 hPa 0,0 l/m 11,1 km/h (2 Bft) W-SW22.5 250 0 min 10,5 klux 72 W/m
26.09.2014 16:34 16,1 C 17,4 C 16,9 C 89 % 1022,9 hPa 0,0 l/m 15,2 km/h (3 Bft) W22.5 260 0 min 9,1 klux 62 W/m
26.09.2014 16:39 16,1 C 17,2 C 16,9 C 89 % 1022,9 hPa 0,0 l/m 12,6 km/h (3 Bft) W22.5 265 0 min 5,61 klux 38 W/m
26.09.2014 16:44 16,0 C 16,9 C 16,9 C 88 % 1022,9 hPa 0,0 l/m 14,6 km/h (3 Bft) W-SW22.5 255 0 min 6,41 klux 44 W/m
26.09.2014 16:49 15,9 C 16,8 C 16,9 C 88 % 1022,9 hPa 0,0 l/m 12,4 km/h (2 Bft) W22.5 260 0 min 5,64 klux 39 W/m
26.09.2014 16:54 16,1 C 17,4 C 16,9 C 89 % 1022,9 hPa 0,0 l/m 15,2 km/h (3 Bft) W22.5 260 0 min 9,1 klux 62 W/m
26.09.2014 16:59 16,1 C 17,2 C 16,9 C 89 % 1022,9 hPa 0,0 l/m 12,6 km/h (3 Bft) W22.5 265 0 min 5,61 klux 38 W/m
26.09.2014 17:04 16,0 C 16,9 C 16,9 C 88 % 1022,9 hPa 0,0 l/m 14,6 km/h (3 Bft) W-SW22.5 255 0 min 6,41 klux 44 W/m
26.09.2014 17:09 15,9 C 16,8 C 16,9 C 88 % 1022,9 hPa 0,0 l/m 12,4 km/h (2 Bft) W22.5 260 0 min 5,64 klux 39 W/m
26.09.2014 17:14 15,9 C 16,5 C 16,9 C 88 % 1022,9 hPa 0,0 l/m 10,3 km/h (2 Bft) W-SW 255 0 min 5,11 klux 35 W/m
26.09.2014 17:19 15,9 C 16,4 C 16,9 C 88 % 1022,9 hPa 0,0 l/m 11,9 km/h (2 Bft) W22.5 270 0 min 4,22 klux 29 W/m
26.09.2014 17:24 15,9 C 16,3 C 16,9 C 88 % 1022,9 hPa 0,0 l/m 9,2 km/h (2 Bft) W-SW22.5 245 0 min 2,32 klux 16 W/m
26.09.2014 17:29 15,8 C 16,1 C 16,9 C 89 % 1024,0 hPa 0,0 l/m 9,2 km/h (2 Bft) W-SW22.5 245 0 min 2,44 klux 17 W/m
26.09.2014 17:34 15,8 C 16,0 C 16,9 C 89 % 1024,0 hPa 0,0 l/m 13,3 km/h (3 Bft) W-SW22.5 250 0 min 2,25 klux 15 W/m
26.09.2014 17:39 15,8 C 15,9 C 16,9 C 89 % 1024,0 hPa 0,0 l/m 12,5 km/h (2 Bft) SW45 235 0 min 2,68 klux 18 W/m
26.09.2014 17:44 15,8 C 15,9 C 16,9 C 89 % 1024,0 hPa 0,0 l/m 15,3 km/h (3 Bft) W-SW22.5 245 0 min 1,68 klux 11 W/m
26.09.2014 17:49 15,8 C 15,9 C 16,9 C 89 % 1024,0 hPa 0,0 l/m 15,3 km/h (3 Bft) W22.5 265 0 min 3,34 klux 23 W/m
26.09.2014 17:54 15,8 C 16,1 C 16,9 C 89 % 1024,0 hPa 0,0 l/m 16,2 km/h (3 Bft) W-SW45 250 0 min 3,64 klux 25 W/m
26.09.2014 17:59 15,9 C 16,2 C 16,9 C 89 % 1023,9 hPa 0,0 l/m 12,5 km/h (2 Bft) SW22.5 235 0 min 4,27 klux 29 W/m
26.09.2014 18:04 15,9 C 16,3 C 16,9 C 89 % 1023,9 hPa 0,0 l/m 15,3 km/h (3 Bft) W-SW22.5 240 0 min 4,78 klux 33 W/m
26.09.2014 18:09 16,0 C 16,3 C 16,9 C 89 % 1023,9 hPa 0,0 l/m 16,0 km/h (3 Bft) W-SW22.5 250 0 min 3,80 klux 26 W/m
26.09.2014 18:14 16,0 C 16,3 C 16,9 C 89 % 1023,9 hPa 0,0 l/m 9,8 km/h (2 Bft) W-SW22.5 240 0 min 4,30 klux 29 W/m
26.09.2014 18:19 16,0 C 16,3 C 16,9 C 89 % 1023,9 hPa 0,0 l/m 6,7 km/h (2 Bft) SW45 225 0 min 4,21 klux 29 W/m
26.09.2014 18:24 16,0 C 16,3 C 16,9 C 89 % 1023,9 hPa 0,0 l/m 8,0 km/h (2 Bft) W-SW22.5 240 0 min 3,37 klux 23 W/m
26.09.2014 18:29 16,0 C 16,2 C 16,9 C 89 % 1023,9 hPa 0,0 l/m 15,0 km/h (3 Bft) W-SW22.5 240 0 min 3,35 klux 23 W/m
26.09.2014 18:34 16,0 C 16,2 C 16,9 C 89 % 1023,9 hPa 0,0 l/m 8,5 km/h (2 Bft) SW 235 0 min 3,55 klux 24 W/m
26.09.2014 18:39 16,0 C 16,3 C 16,9 C 89 % 1023,9 hPa 0,0 l/m 10,5 km/h (2 Bft) SW22.5 230 0 min 4,32 klux 30 W/m
26.09.2014 18:44 16,0 C 16,4 C 16,9 C 89 % 1023,9 hPa 0,0 l/m 13,6 km/h (3 Bft) SW45 230 0 min 4,12 klux 28 W/m
26.09.2014 18:49 16,0 C 16,4 C 16,9 C 89 % 1023,9 hPa 0,0 l/m 8,2 km/h (2 Bft) SW22.5 225 0 min 4,12 klux 28 W/m
26.09.2014 18:54 16,0 C 16,1 C 16,9 C 89 % 1023,9 hPa 0,0 l/m 10,9 km/h (2 Bft) SW45 225 0 min 2,10 klux 14 W/m
26.09.2014 18:59 16,0 C 15,9 C 16,9 C 89 % 1023,9 hPa 0,0 l/m 8,9 km/h (2 Bft) SW22.5 235 0 min 1,46 klux 10 W/m
26.09.2014 19:04 16,0 C 15,9 C 16,9 C 89 % 1023,9 hPa 0,0 l/m 7,3 km/h (2 Bft) SW22.5 230 0 min 963 lux 7 W/m
26.09.2014 19:09 16,0 C 15,9 C 16,8 C 89 % 1023,9 hPa 0,0 l/m 10,1 km/h (2 Bft) SW 235 0 min 963 lux 7 W/m
26.09.2014 19:14 15,9 C 15,8 C 16,8 C 89 % 1023,9 hPa 0,0 l/m 10,1 km/h (2 Bft) SW 235 0 min 474 lux 3 W/m
26.09.2014 19:19 15,9 C 15,8 C 16,9 C 89 % 1023,9 hPa 0,0 l/m 10,6 km/h (2 Bft) SW22.5 230 0 min 288 lux 0 W/m
26.09.2014 19:24 15,9 C 15,8 C 16,9 C 89 % 1023,9 hPa 0,0 l/m 10,5 km/h (2 Bft) SW22.5 230 0 min 208 lux 0 W/m
26.09.2014 19:29 15,9 C 15,8 C 16,8 C 89 % 1023,9 hPa 0,0 l/m 7,1 km/h (2 Bft) SW22.5 230 0 min 85 lux 0 W/m
26.09.2014 19:34 15,8 C 15,7 C 16,8 C 89 % 1024,0 hPa 0,0 l/m 4,3 km/h (1 Bft) SW 230 0 min 72 lux 0 W/m
26.09.2014 19:39 15,8 C 15,7 C 16,9 C 89 % 1024,0 hPa 0,0 l/m 4,3 km/h (1 Bft) SW 230 0 min 37 lux 0 W/m
26.09.2014 19:44 15,8 C 15,6 C 16,8 C 89 % 1024,0 hPa 0,0 l/m 9,5 km/h (2 Bft) SW22.5 230 0 min 26 lux 0 W/m
26.09.2014 19:49 15,8 C 15,6 C 16,8 C 89 % 1024,0 hPa 0,0 l/m 10,2 km/h (2 Bft) SW22.5 230 0 min 12 lux 0 W/m
26.09.2014 19:54 15,8 C 15,4 C 16,9 C 88 % 1024,0 hPa 0,0 l/m 8,8 km/h (2 Bft) SW45 220 0 min 4 lux 0 W/m
26.09.2014 19:59 15,8 C 15,3 C 16,9 C 88 % 1024,0 hPa 0,0 l/m 5,2 km/h (1 Bft) SW22.5 225 0 min 1 lux 0 W/m
26.09.2014 20:04 15,8 C 15,2 C 16,8 C 88 % 1024,0 hPa 0,0 l/m 6,1 km/h (2 Bft) SW22.5 215 0 min 0 lux 0 W/m
26.09.2014 20:09 15,7 C 15,1 C 16,8 C 88 % 1024,0 hPa 0,0 l/m 7,2 km/h (2 Bft) SW22.5 230 0 min 0 lux 0 W/m
26.09.2014 20:14 15,7 C 14,8 C 16,8 C 88 % 1024,0 hPa 0,0 l/m 7,2 km/h (2 Bft) SW22.5 230 0 min 0 lux 0 W/m
26.09.2014 20:19 15,6 C 14,9 C 16,9 C 89 % 1024,0 hPa 0,0 l/m 1,2 km/h (1 Bft) SW 230 0 min 0 lux 0 W/m
26.09.2014 20:24 15,7 C 15,0 C 16,8 C 89 % 1024,0 hPa 0,0 l/m 0,6 km/h (0 Bft) SW 225 0 min 0 lux 0 W/m
26.09.2014 20:30 15,7 C 15,1 C 16,8 C 89 % 1024,0 hPa 0,0 l/m 0,6 km/h (0 Bft) SW 225 0 min 0 lux 0 W/m
26.09.2014 20:34 15,7 C 15,1 C 16,8 C 89 % 1024,0 hPa 0,0 l/m 0,1 km/h (0 Bft) SW 225 0 min 0 lux 0 W/m
26.09.2014 20:39 15,7 C 15,2 C 16,8 C 89 % 1024,0 hPa 0,0 l/m 6,2 km/h (2 Bft) SW22.5 225 0 min 0 lux 0 W/m
26.09.2014 20:44 15,7 C 15,2 C 16,8 C 89 % 1024,0 hPa 0,0 l/m 3,6 km/h (1 Bft) SW22.5 220 0 min 0 lux 0 W/m
26.09.2014 20:49 15,8 C 15,3 C 16,8 C 89 % 1025,0 hPa 0,0 l/m 6,3 km/h (2 Bft) SW22.5 225 0 min 0 lux 0 W/m
26.09.2014 20:54 15,8 C 15,3 C 16,8 C 89 % 1025,0 hPa 0,4 l/m 9,4 km/h (2 Bft) SW22.5 230 0 min 0 lux 0 W/m
26.09.2014 20:59 15,7 C 15,4 C 16,8 C 90 % 1025,0 hPa 0,0 l/m 8,5 km/h (2 Bft) SW22.5 230 0 min 0 lux 0 W/m
26.09.2014 21:04 15,7 C 15,3 C 16,8 C 90 % 1025,0 hPa 0,0 l/m 11,3 km/h (2 Bft) W-SW22.5 245 0 min 0 lux 0 W/m
26.09.2014 21:09 15,7 C 15,3 C 16,8 C 90 % 1025,0 hPa 0,0 l/m 9,9 km/h (2 Bft) SW22.5 220 0 min 0 lux 0 W/m
26.09.2014 21:14 15,6 C 15,3 C 16,8 C 90 % 1025,0 hPa 0,0 l/m 9,2 km/h (2 Bft) SW22.5 220 0 min 0 lux 0 W/m
26.09.2014 21:19 15,6 C 15,2 C 16,8 C 90 % 1025,0 hPa 0,0 l/m 8,3 km/h (2 Bft) SW22.5 225 0 min 0 lux 0 W/m
26.09.2014 21:24 15,6 C 15,2 C 16,8 C 90 % 1025,0 hPa 0,0 l/m 6,7 km/h (2 Bft) SW22.5 230 0 min 0 lux 0 W/m
26.09.2014 21:29 15,6 C 15,2 C 16,8 C 90 % 1025,0 hPa 0,0 l/m 9,4 km/h (2 Bft) SW22.5 230 0 min 0 lux 0 W/m
26.09.2014 21:34 15,6 C 15,2 C 16,8 C 90 % 1025,0 hPa 0,0 l/m 10,3 km/h (2 Bft) SW22.5 225 0 min 0 lux 0 W/m
26.09.2014 21:39 15,6 C 15,1 C 16,8 C 90 % 1025,0 hPa 0,0 l/m 10,1 km/h (2 Bft) SW45 235 0 min 0 lux 0 W/m
26.09.2014 21:44 15,6 C 15,2 C 16,8 C 90 % 1025,0 hPa 0,0 l/m 10,8 km/h (2 Bft) SW45 215 0 min 0 lux 0 W/m
26.09.2014 21:49 15,6 C 15,1 C 16,8 C 90 % 1025,0 hPa 0,0 l/m 10,8 km/h (2 Bft) SW45 215 0 min 0 lux 0 W/m
26.09.2014 21:54 15,6 C 15,1 C 16,8 C 90 % 1025,0 hPa 0,0 l/m 9,9 km/h (2 Bft) SW45 215 0 min 0 lux 0 W/m
26.09.2014 21:59 15,6 C 15,1 C 16,8 C 90 % 1025,0 hPa 0,0 l/m 13,8 km/h (3 Bft) SW45 215 0 min 0 lux 0 W/m
26.09.2014 22:04 15,6 C 15,1 C 16,8 C 90 % 1025,0 hPa 0,0 l/m 16,5 km/h (3 Bft) SW22.5 230 0 min 0 lux 0 W/m
26.09.2014 22:09 15,6 C 15,2 C 16,8 C 90 % 1025,0 hPa 0,0 l/m 14,4 km/h (3 Bft) SW22.5 230 0 min 0 lux 0 W/m
26.09.2014 22:14 15,6 C 15,1 C 16,8 C 90 % 1025,0 hPa 0,0 l/m 12,1 km/h (2 Bft) SW22.5 225 0 min 0 lux 0 W/m
26.09.2014 22:19 15,6 C 15,1 C 16,8 C 90 % 1025,0 hPa 0,0 l/m 13,8 km/h (3 Bft) SW67.5 230 0 min 0 lux 0 W/m
26.09.2014 22:24 15,6 C 15,1 C 16,8 C 90 % 1025,0 hPa 0,0 l/m 11,5 km/h (2 Bft) W-SW45 240 0 min 0 lux 0 W/m
26.09.2014 22:29 15,5 C 15,1 C 16,8 C 91 % 1025,0 hPa 0,0 l/m 12,0 km/h (2 Bft) W-SW22.5 250 0 min 0 lux 0 W/m
26.09.2014 22:34 15,5 C 15,0 C 16,8 C 91 % 1025,0 hPa 0,0 l/m 9,9 km/h (2 Bft) W-SW22.5 245 0 min 0 lux 0 W/m
26.09.2014 22:39 15,5 C 15,0 C 16,8 C 91 % 1025,0 hPa 0,0 l/m 9,2 km/h (2 Bft) SW22.5 230 0 min 0 lux 0 W/m
26.09.2014 22:44 15,4 C 14,9 C 16,8 C 91 % 1025,0 hPa 0,0 l/m 9,2 km/h (2 Bft) SW22.5 230 0 min 0 lux 0 W/m
26.09.2014 22:49 15,4 C 14,7 C 16,8 C 91 % 1025,0 hPa 0,0 l/m 12,8 km/h (3 Bft) W-SW22.5 240 0 min 0 lux 0 W/m
26.09.2014 22:54 15,3 C 14,8 C 16,9 C 91 % 1025,0 hPa 0,0 l/m 13,4 km/h (3 Bft) W-SW22.5 250 0 min 0 lux 0 W/m
26.09.2014 22:59 15,4 C 14,8 C 16,8 C 91 % 1025,0 hPa 0,0 l/m 12,5 km/h (2 Bft) W-SW22.5 245 0 min 0 lux 0 W/m
26.09.2014 23:04 15,4 C 14,9 C 16,8 C 91 % 1025,0 hPa 0,0 l/m 12,2 km/h (2 Bft) W-SW22.5 245 0 min 0 lux 0 W/m
26.09.2014 23:09 15,4 C 15,0 C 16,8 C 91 % 1025,0 hPa 0,0 l/m 11,8 km/h (2 Bft) W-SW22.5 250 0 min 0 lux 0 W/m
26.09.2014 23:14 15,4 C 15,0 C 16,8 C 91 % 1025,0 hPa 0,0 l/m 12,2 km/h (2 Bft) W22.5 270 0 min 0 lux 0 W/m
26.09.2014 23:19 15,4 C 15,0 C 16,8 C 91 % 1025,0 hPa 0,0 l/m 12,0 km/h (2 Bft) W22.5 270 0 min 0 lux 0 W/m
26.09.2014 23:24 15,4 C 15,0 C 16,8 C 91 % 1025,0 hPa 0,0 l/m 11,0 km/h (2 Bft) W22.5 270 0 min 0 lux 0 W/m
26.09.2014 23:29 15,4 C 15,0 C 16,8 C 91 % 1025,0 hPa 0,0 l/m 11,0 km/h (2 Bft) W22.5 270 0 min 0 lux 0 W/m
26.09.2014 23:34 15,3 C 15,0 C 16,8 C 91 % 1026,0 hPa 0,0 l/m 11,0 km/h (2 Bft) W22.5 270 0 min 0 lux 0 W/m
26.09.2014 23:39 15,3 C 14,9 C 16,8 C 91 % 1025,0 hPa 0,0 l/m 8,7 km/h (2 Bft) W22.5 270 0 min 0 lux 0 W/m
26.09.2014 23:44 15,2 C 14,7 C 16,8 C 91 % 1026,0 hPa 0,0 l/m 10,9 km/h (2 Bft) W22.5 265 0 min 0 lux 0 W/m
26.09.2014 23:49 15,2 C 14,5 C 16,8 C 91 % 1026,0 hPa 0,0 l/m 8,9 km/h (2 Bft) W22.5 265 0 min 0 lux 0 W/m
26.09.2014 23:54 15,2 C 14,5 C 16,8 C 91 % 1026,0 hPa 0,0 l/m 5,5 km/h (2 Bft) W-SW 255 0 min 0 lux 0 W/m
_ Min-Zeit 01:39 01:39 08:19 00:44 01:20 - 20:34 - - - - -
Minimum _ 13,2 C 11,5 C 15,6 C 72 % 1009,8 hPa - 0,1 km/h (0 Bft) - - - - -
_ Max-Zeit 01:20 12:49 15:55 22:29 23:44 20:54 13:14 - - 12:44 12:44 12:44
Maximum _ 20,4 C 26,0 C 16,9 C 91 % 1026,0 hPa 0,4 l/m 29,6 km/h
W (5 Bft)
- - 5 min 49,9 klux 341 W/m
Durchschnitt _ 14,9 C 15,6 C 16,3 C 83 % 1022,6 hPa #0,4 l/m 16,1 km/h (3 Bft) SW - #20 min. 5,18 klux 72 W/m